Regional Weather Roundup
Issued by NWS

Home | Current Version | Previous Version | Graphics & Text | Print | Product List | Glossary On
Versions: 1 2 3 4 5 6 7 8 9 10 11 12 13 14 15 16 17 18 19 20 21 22 23 24 25 26 27 28 29 30 31 32 33 34 35 36 37 38 39 40 41 42 43 44 45 46 47 48 49 50
000
ASUS43 KDTX 210810
RWRMI
MICHIGAN HOURLY REGIONAL WEATHER ROUNDUP
NATIONAL WEATHER SERVICE DETROIT/PONTIAC MI
400 AM EDT TUE OCT 21 2014

NOTE: "FAIR" INDICATES FEW OR NO CLOUDS BELOW 12,000 FEET WITH NO
SIGNIFICANT WEATHER AND/OR OBSTRUCTION TO VISIBILITY.

MIZ047>049-052>055-059>063-066>070-074>076-081>083-210900-
SOUTHEAST LOWER MICHIGAN

CITY           SKY/WX    TMP DP  RH WIND       PRES   REMARKS
ADRIAN         CLOUDY    49  43  80 N5        29.91S
ALMA           CLOUDY    47  43  84 NW9       29.93S
ANN ARBOR      CLOUDY    49  42  77 NW10      29.89S
BAD AXE        LGT RAIN  46  46 100 N10       29.89S
DETROIT CITY   CLOUDY    51  43  74 N7        29.89S
DETROIT        CLOUDY    49  43  80 NW8       29.89S
FLINT          CLOUDY    49  43  80 NW7       29.91S
GROSSE ILE     CLOUDY    50  45  81 NW8       29.87S
HILLSDALE      CLOUDY    48  45  90 NW8       29.92S
HOWELL         CLOUDY    47  43  87 NW8       29.90S

CITY           SKY/WX    TMP DP  RH WIND       PRES   REMARKS
JACKSON        CLOUDY    47  43  86 NW6       29.92R
LAMBERTVILLE   CLOUDY    50  45  81 N3        29.91R
LANSING        CLOUDY    47  42  83 NW5       29.93S
LAPEER         NOT AVBL
MASON          CLOUDY    46  42  86 NW6       29.92S
MONROE         CLOUDY    48  46  93 W3        29.88S
MT. CLEMENS    CLOUDY    48  48 100 NW5       29.86S
PONTIAC        CLOUDY    47  43  86 NW8       29.88S
PORT HOPE        N/A     48  43  82 N13G23    29.88R
PORT HURON     CLOUDY    46  46 100 NW5       29.87S
TRI CITIES     CLOUDY    49  43  80 N10       29.92R
YPSILANTI      CLOUDY    52  43  71 NW9       29.90S
$$
MIZ043>046-050>051-056>058-064>065-071>073-077>080-210900-
SOUTHWEST LOWER MICHIGAN

CITY           SKY/WX    TMP DP  RH WIND       PRES   REMARKS
BATTLE CREEK   CLOUDY    47  41  80 NW7       29.95R
BENTON HARBOR  CLOUDY    49  43  80 VRB6      29.98S
BIG RAPIDS     CLOUDY    45  45 100 NW7       29.95S
COLDWATER      CLOUDY    47  43  84 NW8       29.93S
HOLLAND        CLOUDY    49  42  77 NW8       29.98S
GRAND RAPIDS   CLOUDY    47  42  83 NW10      29.96R
KALAMAZOO      CLOUDY    47  42  83 N10       29.96R
MARSHALL       CLOUDY    46  42  84 NW3       29.93S
MUSKEGON       CLOUDY    47  41  80 N12       29.98F
$$
MIZ016>042-210900-
NORTHERN LOWER MICHIGAN

CITY           SKY/WX    TMP DP  RH WIND       PRES   REMARKS
ALPENA         CLOUDY    44  39  82 N16G22    29.95R
BEAVER ISLAND  CLOUDY    46  40  79 N8        30.02R
BELLAIRE       CLOUDY    46  42  86 N6        29.98R
CADILLAC       CLOUDY    44  43  99 N8        29.94S FOG
CHARLEVOIX     CLOUDY    46  40  78 N10       30.02R
FRANKFORT      CLOUDY    48  42  79 N9G17     29.99R
GAYLORD        CLOUDY    42  39  89 VRB6      29.96R
GRAYLING       CLOUDY    44  43  97 N6        29.96R
HARBOR SPRINGS CLOUDY    45  39  79 N6        29.99S
HOUGHTON LAKE  LGT RAIN  44  42  93 NE9       29.94R FOG
MANISTEE       CLOUDY    46  41  81 N8        30.00R
OSCODA         CLOUDY    45  43  93 N9        29.91R
PELLSTON       CLOUDY    44  38  79 NE10      30.01R
TRAVERSE CITY  CLOUDY    49  41  74 NE15G22   29.97R
$$
MIZ007>008-015-210900-
EASTERN UPPER MICHIGAN

CITY           SKY/WX    TMP DP  RH WIND       PRES   REMARKS
KINROSS        CLOUDY    43  37  81 N8        30.02R
MACKINAC ISLAN CLOUDY    44  37  78 N13G21    30.01R
NEWBERRY       MOCLDY    40  37  89 N6        30.04R
S. S. MARIE    CLOUDY    42  33  70 N10       30.03R
$$
MIZ004>006-011>014-085-210900-
CENTRAL UPPER MICHIGAN

CITY           SKY/WX    TMP DP  RH WIND       PRES   REMARKS
MANISTIQUE     CLOUDY    42  40  92 N9        30.05R
ESCANABA       CLOUDY    43  37  81 N7        30.07R
MENOMINEE      CLOUDY    43  36  75 N13G20    30.06R
SAWYER-GWINN   RAIN      40  38  95 N13       30.09R
$$
MIZ001>003-009>011-084-210900-
WESTERN UPPER MICHIGAN

CITY           SKY/WX    TMP DP  RH WIND       PRES   REMARKS
IRON MOUNTAIN  CLOUDY    41  36  82 N8        30.09R
HOUGHTON       CLOUDY    39  32  76 NE5       30.15R
COPPER HARBOR    N/A     42  35  76 E15       30.16R
IRONWOOD       CLOUDY    39  37  93 CALM      30.14R
$$

ABBREVIATIONS USED IN REMARKS
   TC - TEMPERATURE IN CELSIUS
  WCI - WIND CHILL INDEX
   HX - HEAT INDEX
  VSB - VISIBILITY




USA.gov is the U.S. government's official web portal to all federal, state and local government web resources and services.